Wind_Speed
4 6 8 10 11 12 13 14 15 16 16 16 17 18 18 18 18 19 20 20 19 20 21 22 23 23 23 24 24 24 25 26 25 25 26 26 27 28 29 30 30 30 30 30
4 7 8 10 11 12 13 13 14 15 16 17 18 19 19 19 19 20 20 20 19 19 20 21 21 21 22 23 24 25 25 26 25 26 26 26 27 27 28 29 30 30 29 29
6 8 9 9 11 11 12 13 14 14 16 17 18 17 18 18 19 19 19 18 18 19 20 21 21 22 22 22 23 24 25 25 26 26 26 27 27 28 28 29 30 30 30 30
7 9 9 10 11 11 12 13 14 15 16 16 16 16 17 18 19 19 18 19 19 20 20 21 21 22 23 23 24 24 25 25 26 27 27 27 28 29 29 29 29 30 30 29
9 9 10 10 11 12 13 14 15 16 16 17 17 17 17 18 18 19 19 20 20 20 20 21 22 22 23 23 24 25 26 26 26 27 28 28 28 29 30 30 29 29 29 29
10 10 11 12 12 13 13 14 15 15 15 16 17 17 18 17 19 20 19 19 19 20 20 21 22 22 23 23 24 25 25 26 26 27 27 27 28 29 29 29 28 28 28 28
10 11 12 12 13 14 14 14 14 14 15 16 18 17 17 18 19 20 20 20 20 20 20 20 21 21 22 23 24 25 25 26 26 26 26 26 27 28 28 28 28 28 28 27
11 11 12 13 14 15 15 15 16 17 17 17 17 17 18 19 20 20 20 19 19 19 19 20 20 21 21 22 23 24 24 25 25 25 26 26 26 27 27 27 27 27 26 26
13 13 13 14 15 15 16 16 17 19 20 20 19 19 19 19 19 20 19 18 18 18 19 19 20 20 20 21 22 22 22 23 24 25 26 26 26 26 25 25 24 24 24 25
15 15 15 15 15 16 16 16 17 18 19 20 20 19 19 19 20 20 19 18 18 19 19 19 19 19 19 19 20 21 21 23 24 25 25 25 25 24 24 23 23 22 23 24
17 17 17 16 15 15 17 17 17 18 19 20 20 20 20 20 19 18 17 18 18 19 19 19 19 18 18 19 20 21 22 22 23 24 24 23 23 23 22 22 22 22 23 23
17 17 17 17 16 16 16 17 17 18 19 20 20 21 20 21 20 19 19 19 19 19 19 19 19 18 18 18 19 20 21 22 22 22 23 22 22 21 21 21 21 22 22 22
17 17 17 17 17 18 18 18 18 18 19 19 20 21 21 21 20 20 20 20 20 19 19 18 19 19 18 18 18 19 20 21 22 22 22 23 22 21 20 20 21 21 21 21
18 17 17 17 17 17 18 19 19 19 19 20 21 21 21 21 21 20 20 20 20 18 18 18 18 18 18 18 18 18 19 21 21 21 21 21 21 20 20 19 19 20 20 20
18 18 18 18 18 18 18 19 19 20 20 21 21 21 21 20 19 19 18 18 19 18 17 18 18 17 17 17 17 18 19 20 19 19 20 20 20 19 19 19 19 19 20 20
18 19 19 19 18 19 19 19 19 19 20 20 20 20 20 18 18 18 18 18 18 17 17 17 16 16 17 17 16 16 17 17 18 18 18 18 17 17 17 18 18 19 19 20
19 20 20 19 19 19 20 20 20 20 19 19 19 19 18 17 17 18 17 17 16 16 15 15 14 14 15 14 14 15 16 16 16 17 17 17 16 16 16 17 18 19 19 19
19 20 20 19 19 19 19 19 19 19 19 19 18 17 17 16 16 17 16 15 14 13 13 13 13 13 13 13 13 14 15 15 15 16 16 15 16 16 16 17 17 18 19 19
20 20 19 19 19 19 19 19 18 18 18 18 17 17 16 15 15 15 14 14 13 12 11 11 11 11 11 11 11 12 13 14 15 15 15 15 15 15 15 17 17 18 19 18
20 19 19 19 18 18 19 18 18 18 17 17 17 16 15 14 14 13 13 13 12 12 10 10 10 9 10 10 10 11 12 13 13 14 15 15 15 15 16 16 17 17 18 17
20 20 19 19 19 19 20 18 18 17 16 16 15 14 13 13 13 13 13 12 10 10 10 10 9 8 9 9 10 10 11 12 13 14 14 14 14 14 15 15 16 17 17 17
20 20 19 19 18 18 18 18 17 16 15 15 14 14 13 12 12 11 11 10 9 8 8 8 7 8 8 9 9 10 10 11 12 13 13 13 13 14 15 15 16 17 17 18
19 19 19 18 17 17 17 17 16 15 14 13 13 12 12 11 10 9 9 8 7 7 7 7 6 7 8 8 8 9 10 11 12 12 12 13 14 14 15 16 16 17 18 18
20 19 19 18 17 16 16 16 15 13 12 12 11 10 9 9 8 8 7 7 6 5 5 5 6 6 6 7 8 9 9 10 11 11 12 12 13 14 15 16 17 17 18 18
19 19 19 18 17 16 15 14 13 12 11 11 10 8 8 8 7 6 5 5 4 4 4 4 5 6 6 7 7 8 10 10 11 11 13 14 15 15 16 16 17 17 18 18
19 19 19 18 17 15 14 13 12 11 11 11 10 9 8 7 6 5 4 4 4 4 3 4 4 5 6 7 8 8 9 10 11 12 13 14 15 15 16 17 17 17 18 19
Wind_Direction
252 247 245 247 244 248 253 257 260 263 267 269 273 275 277 280 280 280 281 280 281 281 279 278 279 279 280 282 283 284 284 285 286 288 288 287 287 287 289 289 288 286 285 284
269 255 253 255 257 259 260 263 265 267 271 273 274 279 280 281 282 282 282 281 279 281 281 281 281 280 281 282 284 288 287 286 288 290 291 292 293 293 292 291 289 288 286 285
262 266 267 268 271 272 273 271 270 273 274 280 282 284 284 284 283 282 281 282 281 281 283 282 280 280 282 285 287 289 290 290 290 292 294 294 294 294 293 291 288 286 284 284
280 279 274 274 275 276 275 274 274 276 279 281 285 289 287 288 286 284 284 285 285 285 285 285 284 282 282 284 286 287 290 291 291 293 295 295 296 296 294 293 292 289 285 285
287 284 278 277 275 274 273 275 279 281 282 285 288 290 289 290 290 288 288 289 288 288 288 289 289 287 284 284 287 287 289 291 292 294 296 296 297 296 295 295 293 291 289 287
296 287 280 279 279 279 283 285 289 292 291 289 290 292 294 292 292 291 291 290 288 290 290 289 288 286 285 286 288 290 292 294 295 296 297 298 298 298 297 295 294 292 291 289
304 295 288 285 284 284 287 292 295 293 290 288 290 294 294 293 292 293 293 292 289 290 290 290 290 287 286 287 288 290 293 294 295 297 299 299 300 300 299 296 294 292 290 290
303 296 290 288 286 287 286 287 287 289 291 291 292 294 296 294 294 295 296 296 294 292 292 292 291 289 289 290 290 291 293 294 296 298 298 298 300 301 300 298 296 294 293 293
298 294 293 293 292 289 290 288 287 289 292 296 297 296 298 298 296 296 298 297 294 294 294 295 293 291 292 293 293 293 294 297 298 298 298 297 300 300 300 300 300 296 295 296
304 303 302 299 297 293 289 288 290 292 293 294 297 298 299 300 298 296 297 296 294 292 293 294 294 292 293 295 296 296 298 299 299 298 299 299 302 304 301 301 301 300 299 300
307 308 307 304 298 295 294 293 293 292 292 293 297 297 298 298 297 295 292 292 292 293 293 294 294 293 294 295 296 298 300 301 301 299 302 303 306 306 304 304 304 303 303 303
306 307 305 304 300 295 294 295 297 296 295 295 298 300 301 301 297 293 291 290 291 292 293 292 292 292 293 295 298 301 303 303 303 303 303 305 308 309 308 306 305 305 306 307
304 305 306 307 306 304 298 297 299 298 297 299 299 300 303 301 299 296 293 292 291 291 291 291 292 292 292 295 300 303 304 304 303 303 304 306 309 310 309 309 309 309 309 309
304 303 302 301 301 300 297 296 297 299 299 299 298 299 300 298 298 298 296 294 292 290 290 292 293 293 292 295 298 302 305 307 307 306 308 310 311 310 310 311 311 312 312 312
305 304 301 300 300 300 300 298 297 297 298 297 298 298 300 299 301 301 299 296 293 292 291 290 291 292 292 294 297 301 304 308 311 313 313 313 312 313 314 314 313 314 315 314
305 304 302 302 303 301 300 300 300 300 299 299 299 298 301 303 302 301 300 298 295 294 292 290 290 292 295 296 298 302 305 309 314 316 317 318 319 318 318 317 316 316 317 318
304 305 305 305 304 305 302 302 301 302 304 302 299 297 300 302 303 302 301 299 298 298 293 291 294 295 296 298 300 306 311 315 319 320 321 321 322 323 323 322 322 322 322 324
304 305 305 305 305 305 303 303 302 302 301 301 301 300 300 303 305 303 302 301 300 299 297 296 294 295 297 297 300 306 315 320 321 322 324 324 324 325 327 327 327 329 328 328
304 305 305 306 306 305 303 305 306 305 301 300 300 301 300 302 303 300 299 299 300 303 298 295 294 296 301 302 306 310 314 318 320 322 325 327 328 328 331 332 332 333 332 332
303 303 302 302 302 301 301 303 304 305 300 299 298 299 300 302 302 302 300 299 301 301 300 298 296 296 298 302 304 307 313 318 320 325 328 330 333 332 333 333 336 336 333 333
301 300 300 299 298 298 301 302 304 303 297 297 296 297 298 300 302 302 302 302 301 301 301 305 303 301 301 302 302 309 316 324 328 331 333 337 340 340 338 338 338 337 336 337
297 299 299 298 297 296 299 299 300 299 296 295 294 295 296 297 300 303 304 304 303 298 301 308 309 310 307 307 310 314 323 332 336 338 340 341 343 343 342 342 341 341 340 339
292 295 295 294 294 295 297 298 298 295 292 292 292 293 295 296 299 302 306 305 297 298 307 312 315 316 315 316 322 327 330 335 340 342 343 344 344 344 344 342 342 343 342 342
289 290 290 290 292 293 294 295 294 292 289 289 290 291 294 295 298 302 304 307 303 301 308 316 329 332 334 333 333 333 337 340 343 345 349 349 346 345 346 344 344 346 345 345
287 288 287 287 289 291 294 292 289 287 284 283 285 290 297 296 293 295 301 308 312 303 306 315 326 334 337 340 341 341 342 343 344 346 347 346 345 344 345 346 346 349 350 348
283 285 285 284 287 289 291 288 284 282 279 277 280 284 287 285 282 283 290 302 306 296 301 317 319 326 333 339 344 343 343 344 345 347 348 348 349 349 349 350 352 353 352 351
Height
5857 5859 5859 5859 5859 5860 5860 5860 5860 5860 5859 5858 5858 5858 5858 5856 5856 5854 5853 5852 5851 5850 5848 5847 5845 5843 5842 5841 5839 5838 5836 5834 5832 5830 5828 5826 5824 5822 5820 5817 5815 5812 5810 5809
5857 5857 5857 5856 5856 5856 5857 5857 5857 5857 5856 5855 5855 5854 5853 5852 5851 5850 5849 5848 5847 5845 5844 5842 5840 5838 5837 5836 5835 5833 5831 5829 5827 5825 5822 5820 5818 5816 5813 5810 5808 5805 5803 5802
5855 5855 5854 5854 5854 5854 5854 5854 5854 5853 5853 5852 5851 5851 5849 5848 5847 5846 5845 5843 5842 5841 5839 5837 5835 5834 5832 5831 5830 5828 5826 5823 5822 5819 5817 5814 5812 5809 5806 5804 5801 5799 5797 5795
5853 5852 5852 5851 5851 5851 5851 5850 5850 5849 5849 5849 5848 5847 5846 5844 5843 5841 5840 5838 5837 5836 5834 5832 5830 5829 5827 5826 5824 5822 5820 5818 5816 5814 5811 5808 5805 5802 5799 5796 5794 5791 5789 5787
5851 5850 5849 5849 5848 5847 5847 5846 5846 5845 5845 5844 5844 5843 5843 5840 5838 5837 5835 5833 5832 5831 5829 5827 5825 5823 5822 5820 5819 5817 5815 5813 5810 5808 5805 5802 5799 5796 5792 5789 5786 5784 5782 5780
5848 5847 5846 5846 5844 5843 5843 5843 5842 5841 5841 5841 5840 5840 5839 5836 5833 5831 5830 5829 5827 5826 5824 5822 5820 5818 5816 5815 5813 5811 5809 5807 5805 5802 5799 5796 5793 5789 5786 5782 5779 5777 5775 5772
5846 5845 5843 5842 5841 5841 5840 5840 5840 5840 5839 5838 5836 5834 5834 5831 5828 5826 5825 5824 5822 5821 5819 5817 5815 5813 5812 5810 5808 5806 5804 5802 5799 5796 5793 5789 5786 5782 5779 5776 5773 5770 5768 5765
5844 5843 5841 5839 5838 5837 5836 5836 5837 5835 5834 5833 5831 5830 5829 5826 5823 5821 5820 5818 5817 5815 5814 5812 5810 5808 5806 5804 5802 5800 5798 5796 5793 5790 5786 5783 5780 5776 5772 5769 5766 5763 5761 5758
5840 5840 5837 5835 5834 5833 5832 5831 5831 5830 5828 5827 5827 5826 5824 5820 5819 5817 5815 5813 5812 5810 5808 5806 5804 5802 5801 5799 5797 5795 5793 5790 5787 5784 5780 5777 5773 5770 5766 5763 5760 5757 5754 5752
5835 5835 5833 5831 5829 5828 5828 5826 5825 5825 5823 5823 5822 5821 5820 5816 5814 5812 5810 5808 5806 5805 5803 5801 5799 5797 5795 5794 5792 5789 5787 5785 5782 5778 5775 5771 5768 5764 5761 5758 5754 5751 5749 5746
5831 5830 5829 5827 5825 5824 5823 5822 5820 5820 5819 5818 5816 5818 5815 5811 5809 5807 5805 5803 5801 5800 5798 5796 5794 5792 5791 5789 5787 5784 5782 5779 5776 5773 5769 5766 5762 5759 5755 5752 5749 5746 5743 5740
5826 5825 5823 5822 5821 5819 5818 5817 5816 5815 5813 5812 5811 5813 5808 5806 5803 5801 5800 5798 5796 5795 5793 5791 5789 5788 5786 5784 5782 5779 5777 5774 5771 5767 5764 5761 5757 5754 5750 5747 5744 5741 5737 5734
5822 5821 5819 5819 5819 5816 5813 5812 5811 5810 5808 5807 5807 5808 5803 5800 5798 5796 5794 5792 5791 5789 5788 5786 5784 5782 5781 5779 5777 5775 5772 5769 5766 5762 5759 5756 5752 5749 5746 5743 5739 5736 5732 5729
5817 5816 5816 5815 5813 5811 5809 5808 5807 5805 5804 5802 5801 5800 5798 5795 5793 5791 5789 5787 5785 5783 5782 5781 5779 5777 5776 5774 5772 5770 5767 5764 5761 5757 5754 5751 5748 5745 5741 5738 5735 5731 5728 5725
5814 5813 5811 5810 5808 5806 5805 5804 5802 5801 5799 5797 5796 5793 5791 5789 5787 5785 5783 5781 5779 5778 5777 5775 5774 5772 5771 5769 5767 5766 5763 5760 5756 5753 5750 5747 5743 5740 5737 5734 5730 5727 5724 5720
5809 5808 5806 5805 5803 5801 5800 5799 5797 5796 5794 5792 5790 5789 5786 5784 5782 5780 5777 5775 5774 5772 5771 5770 5769 5767 5766 5764 5763 5761 5758 5756 5752 5749 5746 5743 5739 5736 5733 5730 5727 5724 5720 5716
5804 5803 5801 5800 5799 5797 5795 5794 5792 5790 5788 5787 5785 5784 5781 5779 5777 5774 5772 5770 5769 5767 5766 5765 5764 5763 5762 5760 5759 5756 5754 5751 5749 5746 5743 5739 5736 5733 5730 5727 5724 5720 5716 5712
5800 5798 5796 5795 5795 5793 5793 5789 5787 5785 5783 5781 5779 5778 5776 5775 5773 5770 5768 5766 5764 5763 5762 5761 5760 5759 5758 5757 5755 5754 5751 5748 5746 5743 5740 5737 5734 5731 5728 5724 5721 5717 5714 5710
5795 5794 5792 5791 5789 5788 5786 5784 5782 5781 5779 5777 5775 5773 5772 5770 5769 5767 5764 5762 5761 5760 5759 5758 5757 5756 5755 5754 5753 5751 5749 5746 5743 5741 5738 5734 5731 5728 5725 5722 5718 5715 5711 5707
5791 5789 5788 5786 5784 5783 5782 5780 5777 5777 5774 5772 5770 5769 5767 5766 5765 5764 5762 5759 5758 5757 5756 5755 5754 5753 5752 5751 5750 5749 5747 5744 5741 5738 5736 5732 5729 5726 5723 5720 5716 5713 5709 5705
5786 5784 5783 5781 5779 5778 5777 5775 5773 5772 5771 5768 5766 5765 5764 5762 5761 5760 5758 5756 5755 5754 5754 5753 5751 5750 5750 5749 5748 5746 5745 5742 5739 5736 5734 5730 5727 5724 5721 5718 5714 5711 5707 5703
5781 5779 5777 5776 5774 5775 5771 5769 5769 5767 5765 5763 5762 5761 5760 5759 5758 5757 5755 5754 5753 5752 5751 5750 5750 5749 5748 5747 5746 5744 5743 5740 5737 5735 5732 5729 5726 5722 5719 5716 5713 5709 5705 5701
5775 5774 5771 5771 5771 5768 5766 5764 5763 5761 5760 5759 5758 5758 5757 5756 5755 5754 5753 5752 5751 5750 5750 5749 5748 5748 5747 5746 5744 5742 5741 5739 5736 5733 5730 5727 5724 5721 5718 5714 5711 5707 5703 5699
5769 5767 5766 5764 5764 5763 5761 5759 5758 5757 5756 5755 5755 5754 5754 5753 5752 5751 5751 5750 5749 5749 5748 5748 5747 5747 5745 5744 5743 5741 5739 5737 5734 5732 5729 5726 5723 5720 5716 5713 5709 5705 5701 5696
5763 5761 5760 5759 5758 5757 5756 5755 5754 5753 5752 5752 5752 5751 5751 5750 5750 5749 5749 5748 5748 5748 5747 5747 5746 5745 5744 5743 5742 5740 5738 5736 5733 5731 5728 5725 5722 5718 5715 5711 5707 5703 5699 5695
5757 5755 5754 5754 5753 5752 5752 5751 5750 5749 5749 5749 5749 5748 5748 5747 5747 5747 5747 5747 5746 5746 5746 5746 5745 5744 5743 5742 5741 5739 5737 5735 5732 5730 5727 5724 5720 5717 5713 5709 5706 5702 5698 5693